| time (UTC) | temp F | wind direction | speed MPH | gust MPH | rain 1hr in | rain 24hr in | rain mn in | humidity % | barometer mb |
| 20260504033929 | 49 | 261 | 24.0 | 39.0 | 0.00 | 0.00 | 0.00 | 27 | 1010.1 |
| 20260504032929 | 49 | 260 | 21.0 | 37.0 | 0.00 | 0.00 | 0.00 | 26 | 1010.2 |
| 20260504031929 | 50 | 262 | 27.0 | 44.0 | 0.00 | 0.00 | 0.00 | 25 | 1010.1 |
| 20260504025928 | 50 | 256 | 23.0 | 39.0 | 0.00 | 0.00 | 0.00 | 21 | 1009.9 |
| 20260504023927 | 51 | 258 | 25.0 | 38.0 | 0.00 | 0.00 | 0.00 | 17 | 1009.7 |
| 20260504022927 | 52 | 262 | 23.0 | 38.0 | 0.00 | 0.00 | 0.00 | 16 | 1009.8 |
| 20260504021928 | 52 | 249 | 23.0 | 34.0 | 0.00 | 0.00 | 0.00 | 15 | 1009.7 |
| 20260504020927 | 53 | 261 | 19.0 | 30.0 | 0.00 | 0.00 | 0.00 | 13 | 1009.8 |
| 20260504015927 | 53 | 253 | 20.0 | 31.0 | 0.00 | 0.00 | 0.00 | 11 | 1009.8 |
| 20260504014927 | 54 | 250 | 22.0 | 30.0 | 0.00 | 0.00 | 0.00 | 10 | 1009.8 |
| 20260504014316 | 54 | 259 | 22.0 | 31.0 | 0.00 | 0.00 | 0.00 | 10 | 1009.9 |
| 20260504013927 | 54 | 259 | 22.0 | 31.0 | 0.00 | 0.00 | 0.00 | 10 | 1009.9 |
| 20260504013410 | 55 | 255 | 22.0 | 32.0 | 0.00 | 0.00 | 0.00 | 9 | 1009.9 |
| 20260504012927 | 55 | 255 | 22.0 | 32.0 | 0.00 | 0.00 | 0.00 | 9 | 1009.9 |
| 20260504012241 | 56 | 249 | 19.0 | 34.0 | 0.00 | 0.00 | 0.00 | 9 | 1010.1 |
| 20260504011927 | 56 | 249 | 19.0 | 34.0 | 0.00 | 0.00 | 0.00 | 9 | 1010.1 |
| 20260504010927 | 56 | 256 | 23.0 | 37.0 | 0.00 | 0.00 | 0.00 | 10 | 1010.1 |
| 20260504005927 | 56 | 245 | 24.0 | 33.0 | 0.00 | 0.00 | 0.00 | 13 | 1010.0 |
| 20260504005227 | 56 | 249 | 18.0 | 30.0 | 0.00 | 0.00 | 0.00 | 19 | 1010.2 |
| 20260504004927 | 56 | 249 | 18.0 | 30.0 | 0.00 | 0.00 | 0.00 | 19 | 1010.2 |
| 20260504004311 | 56 | 251 | 15.0 | 26.0 | 0.00 | 0.00 | 0.00 | 21 | 1010.3 |
| 20260504003927 | 56 | 251 | 15.0 | 26.0 | 0.00 | 0.00 | 0.00 | 21 | 1010.3 |
| 20260504003339 | 55 | 245 | 16.0 | 24.0 | 0.00 | 0.00 | 0.00 | 24 | 1010.4 |
| 20260504002927 | 55 | 245 | 16.0 | 24.0 | 0.00 | 0.00 | 0.00 | 24 | 1010.4 |
| 20260504001927 | 55 | 248 | 18.0 | 28.0 | 0.00 | 0.00 | 0.00 | 24 | 1010.5 |
| 20260504000927 | 55 | 246 | 16.0 | 26.0 | 0.00 | 0.00 | 0.00 | 24 | 1010.4 |
| 20260503235927 | 56 | 244 | 17.0 | 27.0 | 0.00 | 0.00 | 0.00 | 23 | 1010.5 |
| 20260503234927 | 58 | 236 | 16.0 | 31.0 | 0.00 | 0.00 | 0.00 | 22 | 1010.4 |
| 20260503234410 | 57 | 248 | 16.0 | 33.0 | 0.00 | 0.00 | 0.00 | 20 | 1010.5 |
| 20260503233927 | 57 | 248 | 16.0 | 33.0 | 0.00 | 0.00 | 0.00 | 20 | 1010.5 |
| 20260503232927 | 56 | 254 | 21.0 | 36.0 | 0.00 | 0.00 | 0.00 | 21 | 1010.7 |
| 20260503231927 | 57 | 258 | 29.0 | 37.0 | 0.00 | 0.00 | 0.00 | 19 | 1010.4 |
| 20260503230927 | 56 | 243 | 20.0 | 35.0 | 0.00 | 0.00 | 0.00 | 19 | 1010.5 |
| 20260503230259 | 57 | 253 | 26.0 | 40.0 | 0.00 | 0.00 | 0.00 | 17 | 1010.5 |
| 20260503225927 | 57 | 253 | 26.0 | 40.0 | 0.00 | 0.00 | 0.00 | 17 | 1010.5 |
| 20260503225550 | 57 | 253 | 25.0 | 34.0 | 0.00 | 0.00 | 0.00 | 17 | 1010.7 |
| 20260503224927 | 57 | 253 | 25.0 | 34.0 | 0.00 | 0.00 | 0.00 | 17 | 1010.7 |
| 20260503224616 | 56 | 248 | 20.0 | 31.0 | 0.00 | 0.00 | 0.00 | 18 | 1010.9 |
| 20260503223927 | 56 | 248 | 20.0 | 31.0 | 0.00 | 0.00 | 0.00 | 18 | 1010.9 |
| 20260503222928 | 57 | 249 | 19.0 | 27.0 | 0.00 | 0.00 | 0.00 | 18 | 1011.0 |
| 20260503222304 | 57 | 246 | 13.0 | 32.0 | 0.00 | 0.00 | 0.00 | 20 | 1011.1 |
| 20260503221927 | 57 | 246 | 13.0 | 32.0 | 0.00 | 0.00 | 0.00 | 20 | 1011.1 |
| 20260503221425 | 58 | 251 | 22.0 | 34.0 | 0.00 | 0.00 | 0.00 | 17 | 1011.1 |
| 20260503220927 | 58 | 251 | 22.0 | 34.0 | 0.00 | 0.00 | 0.00 | 17 | 1011.1 |
| 20260503220346 | 58 | 250 | 23.0 | 31.0 | 0.00 | 0.00 | 0.00 | 17 | 1011.4 |
| 20260503215927 | 58 | 250 | 23.0 | 31.0 | 0.00 | 0.00 | 0.00 | 17 | 1011.4 |
| 20260503215541 | 58 | 256 | 21.0 | 29.0 | 0.00 | 0.00 | 0.00 | 17 | 1011.3 |
| 20260503214927 | 58 | 256 | 21.0 | 29.0 | 0.00 | 0.00 | 0.00 | 17 | 1011.3 |
| 20260503213927 | 57 | 243 | 14.0 | 28.0 | 0.00 | 0.00 | 0.00 | 22 | 1011.6 |
| 20260503212927 | 57 | 251 | 19.0 | 34.0 | 0.00 | 0.00 | 0.00 | 23 | 1011.7 |
| 20260503211927 | 57 | 251 | 20.0 | 27.0 | 0.00 | 0.00 | 0.00 | 26 | 1011.8 |
| 20260503210927 | 55 | 236 | 7.0 | 21.0 | 0.00 | 0.00 | 0.00 | 32 | 1012.0 |
| 20260503205927 | 54 | 255 | 10.0 | 28.0 | 0.00 | 0.00 | 0.00 | 30 | 1012.1 |
| 20260503204928 | 57 | 248 | 17.0 | 25.0 | 0.00 | 0.00 | 0.00 | 28 | 1012.1 |
| 20260503203927 | 56 | 229 | 8.0 | 25.0 | 0.00 | 0.00 | 0.00 | 30 | 1012.2 |
| 20260503202927 | 56 | 251 | 16.0 | 24.0 | 0.00 | 0.00 | 0.00 | 29 | 1012.2 |
| 20260503201927 | 56 | 239 | 7.0 | 17.0 | 0.00 | 0.00 | 0.00 | 29 | 1012.4 |
| 20260503200927 | 56 | 229 | 8.0 | 24.0 | 0.00 | 0.00 | 0.00 | 31 | 1012.4 |
| 20260503195926 | 56 | 235 | 12.0 | 19.0 | 0.00 | 0.00 | 0.00 | 30 | 1012.4 |
| 20260503194928 | 56 | 243 | 10.0 | 21.0 | 0.00 | 0.00 | 0.00 | 29 | 1012.6 |
| 20260503193929 | 56 | 222 | 7.0 | 19.0 | 0.00 | 0.00 | 0.00 | 30 | 1012.7 |
| 20260503192927 | 56 | 227 | 8.0 | 16.0 | 0.00 | 0.00 | 0.00 | 31 | 1012.7 |
| 20260503191927 | 56 | 243 | 7.0 | 18.0 | 0.00 | 0.00 | 0.00 | 31 | 1012.9 |
| 20260503190927 | 57 | 216 | 6.0 | 14.0 | 0.00 | 0.00 | 0.00 | 33 | 1012.9 |
| 20260503185928 | 56 | 203 | 6.0 | 13.0 | 0.00 | 0.00 | 0.00 | 33 | 1013.0 |
| 20260503184928 | 54 | 200 | 5.0 | 14.0 | 0.00 | 0.00 | 0.00 | 36 | 1013.1 |
| 20260503183927 | 54 | 202 | 5.0 | 18.0 | 0.00 | 0.00 | 0.00 | 37 | 1013.1 |
| 20260503182927 | 53 | 199 | 7.0 | 13.0 | 0.00 | 0.00 | 0.00 | 38 | 1013.1 |
| 20260503181928 | 53 | 227 | 9.0 | 16.0 | 0.00 | 0.00 | 0.00 | 36 | 1013.2 |
| 20260503180927 | 54 | 206 | 6.0 | 16.0 | 0.00 | 0.00 | 0.00 | 36 | 1013.2 |
| 20260503175927 | 53 | 186 | 7.0 | 15.0 | 0.00 | 0.00 | 0.00 | 38 | 1013.4 |
| 20260503174926 | 52 | 200 | 6.0 | 14.0 | 0.00 | 0.00 | 0.00 | 41 | 1013.5 |
| 20260503173927 | 52 | 181 | 9.0 | 15.0 | 0.00 | 0.00 | 0.00 | 39 | 1013.4 |
| 20260503172926 | 51 | 188 | 6.0 | 14.0 | 0.00 | 0.00 | 0.00 | 41 | 1013.5 |
| 20260503171927 | 51 | 193 | 5.0 | 14.0 | 0.00 | 0.00 | 0.00 | 42 | 1013.5 |
| 20260503170927 | 50 | 201 | 5.0 | 13.0 | 0.00 | 0.00 | 0.00 | 43 | 1013.4 |
| 20260503150926 | 48 | 162 | 7.0 | 13.0 | 0.00 | 0.00 | 0.00 | 42 | 1013.4 |
| 20260503130927 | 46 | 126 | 4.0 | 11.0 | 0.00 | 0.00 | 0.00 | 45 | 1012.8 |
| 20260503072928 | 46 | 121 | 6.0 | 13.0 | 0.00 | 0.00 | 0.00 | 41 | 1013.6 |
| 20260503071928 | 46 | 133 | 5.0 | 13.0 | 0.00 | 0.00 | 0.00 | 39 | 1013.5 |
| 20260503070928 | 46 | 130 | 6.0 | 13.0 | 0.00 | 0.00 | 0.00 | 39 | 1013.5 |
| 20260503054930 | 47 | 135 | 4.0 | 9.0 | 0.00 | 0.00 | 0.00 | 32 | 1013.4 |
| 20260503053928 | 47 | 127 | 5.0 | 10.0 | 0.00 | 0.00 | 0.00 | 32 | 1013.5 |
| 20260503052928 | 47 | 146 | 4.0 | 10.0 | 0.00 | 0.00 | 0.00 | 31 | 1013.5 |
| 20260503051928 | 48 | 138 | 4.0 | 10.0 | 0.00 | 0.00 | 0.00 | 31 | 1013.5 |
| 20260503050928 | 48 | 139 | 5.0 | 12.0 | 0.00 | 0.00 | 0.00 | 31 | 1013.4 |
| 20260503045928 | 48 | 120 | 7.0 | 12.0 | 0.00 | 0.00 | 0.00 | 31 | 1013.3 |
| 20260503044928 | 48 | 119 | 6.0 | 12.0 | 0.00 | 0.00 | 0.00 | 31 | 1013.4 |
| 20260503043930 | 48 | 120 | 5.0 | 9.0 | 0.00 | 0.00 | 0.00 | 31 | 1013.3 |
| 20260503042928 | 48 | 119 | 5.0 | 10.0 | 0.00 | 0.00 | 0.00 | 30 | 1013.2 |
| 20260503041928 | 48 | 137 | 3.0 | 9.0 | 0.00 | 0.00 | 0.00 | 30 | 1013.1 |
| 20260503040928 | 48 | 151 | 5.0 | 10.0 | 0.00 | 0.00 | 0.00 | 30 | 1013.2 |
| 20260503035928 | 48 | 122 | 4.0 | 10.0 | 0.00 | 0.00 | 0.00 | 29 | 1013.0 |
| 20260503035346 | 48 | 135 | 5.0 | 10.0 | 0.00 | 0.00 | 0.00 | 29 | 1012.9 |
| 20260503034933 | 48 | 135 | 5.0 | 10.0 | 0.00 | 0.00 | 0.00 | 29 | 1012.9 |